Theta_e
297 297 297 296 294 292 292 291 290 289 288 288 287 288 288 288 288 287 287 287 288 288 287 287 287 287 287 287 286 286 286 285 285 284 284 284 284 284 283 283 283 283 283 282 282 283 282 281 280 280 280 281 282 282 283 283 282 283 283 283 283 282 282 281 280 280 282 283 282 282 282 281 280 282 280 281 281 282 281 282 282 281 281 281 282
297 297 296 296 294 293 291 290 290 289 287 287 287 287 287 287 287 286 286 287 287 287 287 287 287 287 287 286 285 285 285 284 284 284 284 283 282 282 282 283 283 283 283 282 281 281 280 279 279 279 280 281 282 282 282 281 281 281 281 281 282 281 282 280 280 280 279 282 281 282 281 281 279 282 280 279 280 281 281 281 282 282 281 281 281
296 296 295 294 294 293 290 289 289 289 288 287 286 286 286 285 286 285 286 286 287 287 287 286 286 286 286 285 285 284 284 283 283 283 283 283 282 282 283 283 283 282 281 280 279 279 279 279 279 279 279 279 281 281 281 281 281 281 281 281 281 281 281 281 279 278 279 279 281 279 280 280 279 280 280 280 280 280 279 280 281 281 281 281 281
294 294 294 294 294 292 290 288 287 286 286 286 285 285 284 284 285 285 285 286 286 286 286 286 286 285 284 284 283 283 282 282 282 282 282 282 282 282 282 282 282 281 280 279 278 278 279 279 279 278 279 279 280 280 280 280 280 281 280 280 280 280 280 280 279 279 279 278 280 280 280 279 279 280 280 280 279 279 280 281 281 281 281 281 281
294 294 293 293 292 291 290 288 286 285 285 285 285 284 284 284 284 284 285 285 285 285 285 285 284 284 283 283 283 282 282 282 282 281 282 282 282 281 281 281 280 280 280 279 279 278 279 280 280 279 279 279 280 279 280 279 280 280 280 280 280 280 279 279 279 279 278 278 279 280 280 279 279 279 279 278 279 280 281 280 280 280 280 281 280
294 293 293 292 291 290 289 288 287 285 284 284 284 284 284 283 283 284 285 285 285 284 284 284 284 284 283 283 283 283 283 282 281 281 281 281 280 280 280 280 280 279 279 278 278 279 279 280 280 280 280 280 280 280 280 279 279 279 279 280 280 279 279 278 279 278 278 278 278 278 279 278 278 279 280 279 278 278 279 280 280 280 279 279 279
293 292 292 291 290 290 289 288 287 286 285 285 284 283 283 283 283 283 284 285 284 283 283 283 283 284 284 283 283 283 282 281 280 280 280 280 280 280 280 280 279 279 278 278 279 279 280 280 280 280 280 280 280 280 280 279 279 279 279 279 279 279 278 278 278 278 278 277 278 278 278 279 279 277 279 280 279 279 277 277 278 280 280 279 278
292 291 291 290 290 289 288 288 287 286 285 285 284 284 283 283 283 284 284 284 283 283 282 282 283 284 283 283 283 282 281 279 279 279 279 280 280 280 280 279 279 278 277 278 279 279 279 280 280 281 281 281 281 281 280 279 279 279 279 279 279 278 278 278 278 278 277 277 277 277 278 278 278 279 279 279 278 278 280 278 276 277 278 279 279
291 291 290 290 290 289 288 287 286 285 285 284 283 283 283 283 283 283 284 284 284 283 283 283 282 282 282 282 281 281 280 279 279 279 279 279 280 279 279 278 278 277 277 278 278 279 279 279 280 280 280 281 281 280 280 280 279 279 279 279 278 278 278 278 278 277 277 277 277 278 277 277 278 278 278 278 278 278 279 278 276 277 277 277 278
291 290 290 290 290 289 288 287 286 286 285 284 283 283 283 283 283 283 283 284 284 283 282 282 282 282 281 281 280 279 279 279 280 282 281 280 279 279 279 278 278 278 278 277 277 278 278 279 279 280 280 280 279 279 279 279 280 279 279 279 278 277 277 276 277 277 277 276 276 277 276 276 277 278 278 278 279 279 277 277 276 277 277 276 277
291 290 290 290 289 289 288 287 286 285 285 284 284 283 283 283 283 283 283 283 283 282 282 281 281 281 280 280 279 279 279 279 282 283 283 282 279 279 279 279 279 278 278 278 277 278 278 279 279 279 279 279 279 279 280 280 280 280 280 280 279 278 276 276 276 276 276 276 277 276 276 276 277 278 278 278 279 278 277 277 276 276 275 273 272
291 290 290 289 289 288 287 286 285 285 284 284 283 283 283 282 282 282 283 282 282 282 281 281 281 280 280 279 279 279 278 281 283 284 284 283 281 279 280 279 279 278 278 278 278 279 279 279 279 279 279 279 279 279 279 280 281 281 281 280 280 280 279 277 276 275 275 275 275 275 276 276 277 278 278 278 278 278 278 277 276 275 274 273 273
291 290 290 289 289 288 287 286 285 284 284 284 283 283 283 282 282 282 282 282 282 281 281 280 280 280 279 279 278 278 278 282 283 284 284 284 283 281 280 280 279 279 279 278 278 279 280 279 278 278 277 279 279 279 279 279 280 281 281 281 281 281 281 281 280 277 277 275 275 275 276 277 276 277 279 278 279 277 277 276 276 276 275 274 274
291 291 290 289 288 287 287 286 285 285 284 284 284 283 282 282 282 282 282 282 281 281 280 280 280 279 279 279 279 278 278 281 284 285 285 285 284 282 280 280 280 280 279 279 279 280 280 279 278 278 278 277 278 278 278 279 279 280 280 281 281 281 282 282 281 280 279 277 276 275 277 278 277 278 280 280 278 276 275 275 275 275 274 273 274
290 291 290 289 288 287 286 286 285 285 284 284 284 283 282 282 282 282 282 281 280 280 280 279 279 280 279 279 279 278 278 282 284 285 285 286 285 283 280 280 280 280 279 279 279 280 280 279 279 279 278 277 277 278 277 278 278 277 277 278 279 281 281 281 281 281 281 280 279 278 279 279 279 279 280 280 279 278 277 276 275 275 274 274 273
289 290 290 289 287 287 287 286 285 285 284 284 283 283 282 282 282 282 282 281 281 281 280 281 280 279 279 279 279 279 279 282 284 285 286 286 286 283 280 279 279 280 279 280 280 280 280 279 279 279 279 278 278 279 279 278 277 276 275 275 276 277 279 281 283 283 283 283 282 282 282 281 281 280 280 279 279 279 278 277 274 272 271 270 270
289 289 289 288 288 288 287 286 285 284 284 283 283 283 282 282 282 282 282 282 281 280 281 280 280 279 279 279 279 280 279 281 284 285 286 286 286 284 281 279 279 279 279 280 280 280 280 279 279 278 278 278 279 280 281 279 276 275 274 273 274 274 275 277 280 281 282 283 283 283 283 283 283 283 283 283 281 279 277 273 271 272 270 269 270
289 288 288 289 288 287 287 286 285 284 284 283 283 283 283 283 282 283 282 281 281 281 281 280 280 280 279 279 279 279 278 280 284 285 286 287 285 284 283 281 280 279 279 280 280 280 280 280 279 278 278 278 279 280 281 280 277 276 274 273 272 273 274 276 276 276 278 280 281 281 281 282 282 283 283 283 282 282 277 271 273 272 269 270 269
288 288 288 289 288 287 287 286 286 285 284 284 284 283 283 283 283 282 282 283 281 281 280 280 280 280 279 279 280 279 278 279 284 285 286 286 286 285 284 283 281 281 280 280 281 280 280 280 279 278 278 278 279 280 281 280 279 278 277 275 273 273 275 277 275 275 275 274 275 276 276 278 279 279 279 281 281 281 279 275 273 271 270 270 270
289 289 289 289 287 287 286 285 285 285 284 284 284 284 284 283 283 282 282 282 281 281 280 279 279 279 279 278 278 279 278 278 281 285 286 286 286 285 284 283 283 282 282 282 282 282 281 280 279 280 281 280 280 281 281 281 279 279 278 276 275 274 278 277 276 275 275 275 275 275 275 277 277 277 278 278 279 279 277 275 273 272 270 269 269
289 289 288 288 287 287 286 286 285 285 285 285 284 284 284 283 283 282 281 281 280 280 279 279 279 278 278 278 278 278 278 279 279 283 285 286 286 285 284 284 284 284 283 283 282 282 282 281 281 280 281 282 282 282 282 282 281 280 279 277 277 278 278 277 276 277 275 275 274 274 275 275 276 276 276 275 274 273 273 274 272 272 270 268 268
289 288 287 286 286 286 286 286 286 285 285 285 284 284 284 283 282 281 281 280 279 279 279 279 279 278 278 278 278 278 279 280 279 281 283 285 286 286 285 285 285 284 283 283 283 282 283 283 283 281 281 282 283 283 283 283 283 281 280 282 282 281 279 279 278 277 276 276 276 275 275 275 275 275 275 273 273 272 271 271 272 271 271 271 269
287 287 286 286 285 285 285 285 285 285 285 285 284 283 283 282 281 281 280 280 279 279 279 279 278 278 278 278 278 278 279 279 280 279 281 283 284 285 286 286 286 284 283 282 282 283 284 284 283 282 282 282 282 283 283 284 283 283 284 284 283 283 282 281 280 278 277 276 275 275 275 275 274 274 273 272 271 269 269 270 270 270 270 270 270
286 286 285 285 285 285 285 285 285 285 284 284 284 282 281 281 281 281 280 280 279 279 278 278 278 278 278 278 278 278 278 278 279 280 280 281 283 284 285 285 286 284 284 283 283 284 283 284 283 283 282 282 282 282 283 283 282 283 284 284 283 283 282 281 280 279 278 276 275 274 274 275 274 273 272 271 270 269 269 268 268 269 269 268 269
285 285 285 284 284 285 285 285 285 284 284 284 283 282 281 281 280 280 280 280 280 279 279 279 278 279 279 279 279 278 277 277 277 279 279 280 281 283 283 284 285 285 284 284 285 284 284 283 283 282 282 282 282 282 282 282 282 282 283 283 282 281 280 279 279 278 277 276 275 275 275 275 275 273 271 270 269 268 267 267 267 267 267 267 267
284 284 284 284 284 284 284 284 284 284 283 284 283 282 281 280 280 279 280 280 280 280 280 279 279 279 279 279 279 279 277 277 276 276 278 279 279 281 282 282 283 283 283 284 284 284 283 283 283 283 283 282 282 281 280 280 281 281 281 281 280 280 279 279 278 277 276 276 276 275 276 275 271 269 269 268 267 266 266 266 265 265 265 264 264
284 284 284 284 283 283 283 282 282 282 282 283 282 282 281 282 281 279 280 280 280 280 280 278 278 278 278 279 278 278 277 276 276 275 275 277 278 278 279 280 281 282 282 282 282 281 281 281 280 280 280 280 280 280 280 280 280 280 280 280 279 279 279 278 277 277 276 276 276 276 275 270 268 267 267 266 266 266 266 265 265 265 264 264 263
284 283 283 282 282 282 282 277 279 281 281 282 282 281 281 282 281 280 280 280 280 279 279 278 278 278 278 278 277 277 276 276 276 276 275 275 276 277 277 277 278 279 279 280 280 279 278 277 276 277 276 276 276 276 277 277 278 279 279 279 278 278 278 279 279 277 277 276 275 273 269 268 267 267 266 265 265 264 264 263 264 264 264 263 262
282 281 281 281 281 281 281 280 281 281 281 281 281 281 281 281 281 280 280 281 281 280 279 279 278 279 279 278 277 276 276 276 277 278 276 276 275 275 274 274 275 275 276 277 276 275 275 274 274 274 274 274 274 274 275 275 276 277 277 277 277 277 276 276 275 275 276 274 272 271 270 268 267 266 265 264 264 263 264 263 263 262 263 263 262
280 279 280 280 280 280 280 280 280 280 280 280 278 277 275 280 280 281 279 278 279 280 280 280 279 279 278 279 279 278 278 278 278 278 278 278 278 277 276 276 276 275 275 276 276 274 274 274 274 274 273 273 273 273 274 274 274 275 275 275 275 275 274 274 274 274 273 271 271 269 268 267 266 266 265 264 265 264 263 263 262 263 262 262 262
279 279 279 279 279 279 279 279 279 279 279 278 278 277 277 278 279 279 279 279 279 279 280 279 279 279 278 277 277 278 278 278 278 279 279 279 279 278 278 278 277 277 277 276 275 275 274 274 274 274 274 274 273 273 273 273 273 273 273 274 274 273 273 273 272 272 270 269 268 268 268 267 267 267 266 265 264 264 263 263 263 262 262 261 261
279 278 278 278 277 278 278 277 277 277 277 278 278 277 277 276 277 278 279 279 279 280 280 280 279 279 279 278 276 276 277 278 279 279 279 279 279 279 279 279 279 279 279 279 276 275 275 274 274 274 274 273 273 274 274 273 273 273 273 273 273 273 272 272 272 271 270 269 268 267 267 267 267 267 266 265 264 263 263 262 262 261 261 261 261
278 277 277 277 277 276 277 276 276 276 275 276 276 277 277 276 276 276 277 279 279 279 280 280 280 280 279 279 278 278 278 278 278 279 279 279 279 279 279 280 280 280 280 278 277 276 276 275 274 274 274 273 273 274 274 274 273 273 273 273 273 273 273 272 271 270 270 269 269 268 268 267 266 265 264 263 263 262 262 262 262 261 260 260 260
277 276 276 276 276 276 276 276 276 276 276 276 276 276 277 277 277 276 275 275 276 277 278 279 279 280 280 280 280 279 279 279 279 279 279 279 279 279 279 279 280 280 279 277 277 276 276 276 275 274 274 274 274 274 273 273 274 273 273 273 273 273 270 269 269 269 269 269 268 268 267 266 265 264 263 263 262 262 261 261 261 260 260 260 259
275 271 270 272 276 275 275 275 275 275 275 275 275 275 275 275 275 275 275 274 274 273 273 273 274 276 277 278 279 279 279 279 279 279 279 280 280 280 280 278 277 277 278 278 277 276 276 275 275 275 274 273 273 273 273 273 273 273 272 272 272 271 269 268 269 269 268 268 268 267 266 264 264 263 263 262 262 261 261 260 260 260 259 259 259
273 274 273 273 274 275 275 274 274 274 274 274 274 274 272 272 273 274 273 273 274 272 270 270 268 271 274 275 276 277 277 277 277 277 278 278 279 279 277 276 277 276 276 276 276 276 275 274 273 273 272 272 272 272 272 271 272 272 272 271 270 270 269 268 268 267 266 267 266 265 264 263 263 262 262 261 260 260 261 260 260 259 259 258 259
273 273 273 272 272 272 272 272 272 272 270 269 270 270 271 271 270 271 271 272 271 271 270 267 268 269 269 268 269 274 276 277 277 277 277 276 277 276 274 274 274 273 272 271 270 270 270 269 269 269 269 269 269 269 269 270 269 269 269 270 269 269 269 268 268 266 265 265 265 263 263 263 262 261 261 260 260 260 259 259 258 258 258 258 258
272 271 270 269 269 268 269 269 268 267 268 269 269 269 269 269 269 269 269 268 268 268 267 267 269 269 269 268 267 269 271 275 275 274 273 273 271 272 272 271 271 271 270 269 268 268 268 267 267 267 267 267 267 268 268 268 269 268 268 267 267 268 267 266 265 263 262 263 263 262 261 261 260 260 259 259 259 260 259 259 258 258 258 258 258
267 267 267 268 270 270 269 267 267 267 267 268 268 267 266 267 267 268 268 267 267 267 266 267 268 267 267 266 267 267 270 271 271 271 269 269 269 269 269 269 269 269 268 268 267 267 267 267 267 266 266 267 266 267 267 267 267 267 267 266 266 266 266 266 263 262 262 262 262 261 261 261 260 260 259 259 259 259 258 258 257 257 257 258 258
268 268 268 269 269 268 267 266 267 267 267 267 267 267 266 266 267 266 266 266 266 266 266 266 266 265 264 262 265 267 269 268 268 267 267 267 267 266 267 268 268 267 267 266 266 266 265 266 266 265 265 265 265 264 265 264 265 265 264 264 265 264 264 263 263 262 261 261 261 261 260 259 259 258 258 258 259 259 258 257 257 257 257 257 257
269 268 266 268 267 267 266 266 267 267 267 266 266 267 267 266 265 265 266 265 265 264 264 264 265 263 263 264 268 268 267 266 265 265 265 265 265 264 265 265 265 265 265 264 264 264 264 264 264 263 263 263 262 262 262 262 262 263 263 262 262 262 262 260 260 260 260 259 259 259 259 258 258 258 257 258 258 258 257 257 257 257 257 257 256
268 267 267 266 265 266 266 265 264 263 264 264 266 266 264 264 264 265 264 264 263 263 263 263 263 262 263 267 269 270 267 265 265 264 263 263 263 263 263 263 263 263 263 263 263 262 262 262 262 262 261 261 261 261 261 260 261 261 261 261 261 261 260 261 259 258 257 258 257 257 257 257 257 257 257 259 257 257 257 257 257 257 256 256 256
266 266 265 265 266 266 265 263 263 264 264 264 263 262 262 263 263 263 263 263 262 262 262 262 262 262 265 269 268 268 265 264 263 263 263 262 262 262 262 262 262 261 260 260 261 261 261 261 260 261 260 260 259 259 260 260 260 261 261 260 260 259 259 260 259 257 257 256 256 255 254 255 257 257 257 257 257 257 256 256 256 256 256 255 255
264 264 263 263 263 262 262 263 263 263 263 261 261 261 261 262 262 262 262 261 261 262 262 262 262 262 262 262 262 262 262 262 261 262 260 261 261 261 261 261 260 259 259 259 259 258 259 259 259 259 258 257 257 255 258 259 259 259 259 259 259 258 258 258 258 258 258 257 257 256 255 255 255 256 256 256 256 255 255 254 254 255 255 255 255
263 262 262 262 262 262 261 261 261 261 260 260 261 260 260 261 262 261 261 261 260 261 261 261 261 260 260 259 260 260 260 260 260 259 259 259 259 259 259 258 257 257 257 257 257 255 255 256 256 256 256 257 256 255 256 257 257 258 259 259 259 259 259 258 258 258 257 256 257 256 256 256 255 255 256 256 255 254 255 255 254 254 254 254 254
263 262 262 261 261 260 260 260 260 261 261 261 261 260 260 261 260 260 261 260 260 260 260 260 259 259 259 259 259 259 258 257 258 258 258 258 258 258 257 257 257 256 256 257 256 253 255 255 255 256 256 256 256 256 256 255 255 256 256 257 258 258 259 258 257 256 255 255 256 256 256 255 255 255 255 256 256 255 255 254 253 253 253 253 253
262 262 261 261 261 260 259 259 260 260 260 260 260 259 260 259 259 259 258 259 259 259 259 259 259 259 259 258 258 257 257 257 257 257 256 255 255 255 256 255 255 255 255 255 253 254 253 253 254 254 254 255 255 254 255 256 255 256 255 256 256 256 256 257 256 255 255 255 255 256 256 256 255 255 254 254 254 254 253 253 253 252 252 253 253
261 261 261 260 260 259 259 259 258 258 258 259 259 259 258 258 258 258 258 258 258 258 258 258 258 258 257 257 257 256 256 256 256 256 256 256 255 255 254 253 253 254 254 254 253 254 254 253 252 252 253 253 253 254 254 255 255 255 255 255 255 255 255 254 253 253 255 255 254 254 254 254 255 255 255 253 253 254 253 253 253 253 252 252 252
260 260 260 260 259 259 259 259 258 259 258 258 257 258 257 258 258 258 258 258 258 257 258 257 257 256 256 256 256 256 255 255 255 255 256 256 255 254 253 252 252 252 253 253 254 253 252 252 252 252 252 252 253 253 253 253 254 253 253 253 254 253 252 252 253 253 253 253 253 253 253 254 253 253 253 252 252 253 253 253 253 253 253 252 252
259 259 259 259 259 259 259 259 259 259 258 258 258 257 257 257 257 257 257 257 257 256 256 256 256 256 256 256 255 255 255 255 255 255 255 255 255 254 254 252 251 252 253 253 253 253 252 252 251 251 251 251 252 251 252 253 253 253 253 253 254 254 254 253 253 252 252 253 253 253 253 253 252 252 253 252 251 251 251 251 252 252 252 251 251
258 258 258 258 257 257 257 257 257 257 257 257 258 257 257 257 257 256 256 255 256 256 256 255 255 255 254 255 255 255 255 255 255 255 255 254 254 253 253 252 252 252 252 252 252 252 252 252 252 252 251 251 251 251 251 252 252 252 253 253 254 254 254 254 254 254 253 253 252 252 252 251 251 251 251 252 252 251 250 251 251 251 251 251 251
Wind_Speed
11 11 10 11 11 11 11 10 8 8 7 8 8 9 8 8 8 7 8 8 9 10 10 10 10 9 10 9 9 8 8 7 6 6 6 7 6 7 7 7 8 6 6 6 4 4 4 4 3 3 3 4 4 3 3 3 2 2 2 3 3 3 3 4 5 7 3 2 2 2 1 2 4 3 3 3 3 3 4 6 6 6 7 6 6
13 12 11 11 13 12 10 8 10 10 9 9 9 8 8 8 7 8 8 8 9 10 11 9 9 10 10 9 9 9 8 8 7 6 7 7 7 5 7 7 8 7 7 6 5 3 4 5 4 4 3 3 3 3 3 3 3 3 4 4 3 3 3 3 5 5 6 3 2 2 3 2 5 4 3 4 5 5 6 6 6 6 6 6 6
11 11 11 11 13 11 9 9 9 11 11 10 10 8 8 7 7 9 9 9 8 9 10 10 11 10 9 9 9 8 8 8 6 7 6 7 8 7 6 8 8 8 7 6 6 5 4 4 4 4 3 3 3 3 3 4 4 4 4 3 3 3 3 4 4 6 6 6 3 4 4 4 5 4 4 4 6 6 8 7 6 5 6 7 7
11 11 11 11 12 11 10 8 10 9 10 8 10 9 8 8 8 8 8 9 10 8 8 9 10 10 10 10 9 9 9 7 7 6 7 7 8 8 7 7 6 6 6 6 6 5 5 5 5 5 4 4 4 4 3 4 4 4 4 4 3 4 3 4 5 5 5 6 5 4 4 5 5 4 4 5 7 7 7 7 7 7 7 6 7
12 12 12 13 12 12 13 12 12 10 9 9 11 10 10 9 8 9 9 9 9 9 8 8 9 9 9 10 9 9 9 9 8 7 6 6 6 7 7 6 6 6 5 6 5 6 6 6 6 6 6 5 4 5 5 6 5 4 4 4 4 4 3 4 4 4 5 7 6 4 4 5 5 5 5 6 7 7 7 7 7 7 7 8 7
12 13 13 13 13 14 13 13 14 12 10 9 9 9 9 9 10 8 10 11 10 9 10 9 9 9 9 10 10 10 9 9 8 8 7 6 5 5 5 5 5 6 6 5 6 5 5 5 5 6 6 6 6 5 6 7 6 5 6 5 4 4 4 4 4 5 6 7 7 6 5 5 5 6 5 6 7 7 7 7 7 7 7 7 7
12 12 13 14 13 14 13 13 12 12 12 12 9 9 9 9 9 10 10 11 11 11 9 9 8 9 10 10 10 10 10 8 7 7 7 7 7 7 6 6 6 5 5 5 6 6 5 6 6 7 7 7 7 6 6 6 5 6 6 5 5 5 5 5 5 5 6 7 7 7 6 6 6 7 5 5 7 7 8 8 7 5 5 6 7
13 13 13 13 13 14 12 12 11 10 9 10 11 11 9 8 9 9 10 11 11 10 11 11 10 9 9 9 10 9 8 7 7 8 7 7 7 7 7 7 7 5 5 5 5 6 6 6 6 6 7 7 7 6 6 6 5 6 5 5 5 6 5 5 5 5 6 7 7 6 6 6 6 7 6 6 7 7 6 5 8 7 7 7 7
13 14 13 14 13 12 12 11 9 8 9 10 10 10 10 8 7 8 10 10 8 10 9 9 10 9 9 9 9 7 8 8 7 8 8 8 7 8 7 6 6 6 6 5 5 5 5 5 6 6 7 6 5 4 4 4 5 4 6 6 6 6 5 4 4 5 6 6 7 6 6 7 7 7 6 7 7 7 4 5 8 8 7 8 7
14 14 14 13 11 11 11 10 11 11 12 11 10 10 10 9 8 8 10 10 10 8 8 8 9 10 11 9 8 7 6 5 10 12 9 8 8 6 5 6 7 6 6 6 5 5 6 6 5 7 6 7 8 9 9 9 9 7 6 6 6 5 5 5 5 6 6 7 7 5 6 8 8 8 8 8 7 6 6 6 8 8 8 9 8
14 14 14 12 11 11 10 10 11 12 11 10 9 11 10 9 6 6 8 9 9 9 9 10 10 9 9 10 10 8 7 8 16 16 16 13 8 7 7 6 6 6 6 6 7 7 6 6 6 7 8 8 9 12 12 12 13 14 14 11 8 7 6 6 7 7 7 7 6 6 8 9 10 8 8 7 7 7 6 6 7 7 7 7 9
14 14 13 11 11 11 10 10 10 10 10 10 11 11 10 11 11 11 7 7 8 7 10 9 7 7 7 8 8 8 7 11 17 17 17 17 13 8 6 5 6 7 6 6 5 6 6 7 6 5 7 8 7 8 11 14 15 15 16 16 16 15 13 9 8 7 8 7 7 9 8 10 10 7 8 7 7 7 7 7 7 7 8 7 8
13 13 12 12 12 11 11 11 11 10 10 12 11 11 11 11 12 11 13 8 7 8 9 10 10 5 7 10 9 7 8 14 18 19 18 18 18 11 5 6 6 6 7 6 7 7 6 6 6 6 6 10 8 8 8 9 15 18 17 17 17 18 18 20 19 12 6 7 9 10 11 9 10 10 8 8 6 8 7 7 7 8 8 8 10
14 14 12 12 12 12 11 11 10 9 11 12 11 11 12 12 10 9 7 6 8 8 9 11 10 12 12 11 8 7 10 15 20 19 19 19 19 13 5 6 6 6 8 7 7 8 8 7 7 7 7 8 8 9 9 9 8 9 11 12 12 15 19 21 21 21 17 11 10 12 12 10 11 9 7 6 7 7 6 8 7 9 9 10 9
12 12 12 12 11 11 11 11 9 9 12 11 11 11 11 10 11 10 7 10 12 12 12 12 11 10 9 10 11 12 10 16 19 20 19 20 19 14 5 6 5 5 6 7 7 8 8 8 8 8 7 8 8 10 10 10 8 7 7 9 10 11 11 13 14 14 13 14 15 15 13 11 12 11 9 9 10 9 7 9 10 8 6 7 9
12 12 12 12 13 12 13 11 8 9 11 10 10 10 9 9 10 8 7 5 5 6 6 8 10 12 12 11 9 8 7 17 19 21 21 20 20 9 6 6 6 6 6 8 8 7 8 9 8 8 7 8 10 16 13 8 6 8 8 8 8 9 11 10 13 14 14 13 14 14 12 11 12 10 9 8 8 10 10 9 3 3 4 7 9
13 13 12 12 13 12 12 11 10 11 11 12 12 11 11 11 10 7 7 7 9 10 10 10 10 10 10 10 10 6 7 15 21 20 19 20 15 7 7 6 6 6 7 8 7 8 8 9 9 7 7 9 11 15 16 13 7 8 8 10 9 8 10 8 14 20 21 21 21 20 20 20 19 21 22 22 16 11 7 6 7 6 6 8 9
13 13 13 12 11 12 12 12 13 12 13 14 15 14 14 12 12 11 13 12 11 11 10 8 7 8 9 10 10 10 8 12 19 19 19 20 14 9 7 7 7 7 7 8 7 7 9 10 9 8 8 10 10 14 15 12 8 8 9 10 11 11 11 7 7 9 16 20 22 24 26 26 26 26 26 25 24 18 8 9 7 6 7 7 10
13 13 12 11 11 10 11 11 11 11 12 13 13 13 13 12 11 11 10 6 10 6 7 5 5 4 7 8 7 7 6 8 16 18 19 20 15 6 7 6 7 8 8 8 8 8 7 8 13 12 11 10 10 12 15 13 10 8 8 7 9 10 10 6 7 6 5 6 9 10 13 16 16 16 16 22 22 20 11 9 5 6 6 6 5
11 11 11 10 7 9 10 11 12 13 14 12 10 10 8 6 7 7 8 6 5 5 7 7 8 6 6 7 7 7 7 7 11 18 18 19 18 9 6 7 9 9 9 8 7 6 7 6 9 17 19 17 15 16 17 18 12 8 7 8 9 13 4 3 4 4 5 7 7 7 9 9 8 9 9 9 10 10 7 7 5 4 4 3 3
11 11 10 10 8 9 7 10 12 11 10 11 9 9 8 9 9 10 9 7 7 7 9 8 8 7 6 7 7 8 8 8 9 17 17 18 18 14 8 9 8 8 8 7 8 7 7 7 5 11 17 17 18 18 18 18 18 12 10 11 10 7 7 7 7 9 8 7 7 8 8 8 9 8 8 5 4 4 5 6 4 4 3 3 3
10 10 8 8 9 10 10 9 9 9 8 8 7 6 6 8 9 10 7 8 10 10 8 6 6 5 5 7 7 7 7 9 5 13 16 17 17 19 11 10 9 6 6 7 7 8 9 8 6 9 14 16 17 17 18 18 20 15 15 19 19 18 13 11 10 8 8 9 8 9 9 9 10 10 7 5 6 6 5 3 5 4 3 3 4
9 7 8 11 10 10 9 10 10 8 7 8 11 9 7 9 9 9 9 8 9 9 8 6 6 5 5 5 4 4 4 6 11 9 14 16 17 18 19 12 9 6 7 9 8 8 6 6 6 8 12 14 16 17 18 21 19 17 22 22 21 21 18 12 11 9 8 9 9 9 9 8 9 9 4 5 3 3 3 3 3 3 3 3 4
9 10 10 10 10 9 9 10 9 7 10 9 8 9 9 8 7 7 7 7 7 7 6 6 7 7 7 6 6 5 5 6 9 13 10 15 16 18 18 19 16 10 8 9 8 8 7 8 6 9 11 13 15 17 18 19 16 20 21 22 22 20 14 14 12 10 7 7 7 7 8 8 6 5 6 3 3 4 3 3 3 3 3 3 4
10 10 11 11 9 9 9 8 8 8 8 9 9 8 9 8 7 5 6 6 6 7 7 7 7 7 7 7 6 6 6 5 4 9 13 13 16 17 18 18 18 18 13 10 10 8 7 8 6 8 11 13 15 17 17 18 20 20 21 21 19 12 12 11 11 11 10 9 6 8 8 6 6 2 2 3 4 3 3 2 2 1 2 4 6
10 11 9 9 10 10 10 8 8 8 9 6 6 6 8 8 7 7 7 7 7 7 6 7 7 6 6 6 5 5 5 5 4 4 7 9 11 16 18 18 17 17 15 11 11 10 9 9 12 13 13 12 11 10 10 10 14 17 18 17 11 11 11 11 10 10 11 11 9 9 10 4 2 2 3 3 3 3 3 2 2 2 3 3 4
10 9 9 7 8 10 9 7 6 7 6 6 6 7 7 7 8 8 8 7 7 6 6 6 6 6 6 5 5 4 4 4 4 5 5 6 6 7 9 10 14 14 11 9 9 8 7 4 3 4 6 9 10 10 10 11 10 11 10 10 10 10 11 10 10 10 9 11 11 11 4 3 3 3 2 3 4 2 2 2 2 3 2 3 4
9 9 10 7 6 7 7 11 10 7 7 7 7 7 6 6 7 8 8 8 7 7 6 6 6 6 6 5 4 4 4 4 5 6 6 6 5 5 5 5 4 5 6 5 4 2 2 3 4 4 4 3 4 4 5 6 7 7 8 7 7 8 9 13 13 9 9 6 5 2 2 1 1 1 2 2 2 2 2 2 3 3 3 3 4
9 10 8 6 6 6 7 7 7 8 7 6 5 5 7 7 6 4 1 3 4 6 7 5 4 4 4 5 6 5 4 6 7 6 5 8 7 5 5 5 4 4 6 7 2 2 3 3 3 2 2 2 2 3 3 4 5 6 7 8 7 7 7 8 7 8 8 3 4 4 3 2 2 2 2 2 3 3 3 2 3 3 3 3 5
8 8 6 6 6 6 6 6 5 6 7 6 6 4 8 7 4 3 4 3 5 5 3 3 3 4 4 3 4 5 4 2 7 11 11 12 13 12 10 8 8 5 5 7 5 3 3 2 2 2 2 1 2 3 4 4 5 5 5 6 6 6 7 6 6 7 5 2 2 1 2 2 3 3 3 4 3 3 3 4 3 3 3 4 4
6 6 7 6 7 6 6 6 5 5 5 6 6 6 6 5 7 8 7 6 5 5 5 3 4 5 3 3 2 3 6 8 9 9 11 12 12 12 11 10 10 9 9 4 4 5 4 3 3 2 3 4 5 5 5 5 5 5 6 5 6 6 7 7 7 5 2 2 2 2 3 3 4 4 4 4 4 3 3 3 3 3 3 3 4
8 7 6 6 7 7 5 6 5 5 5 5 6 6 6 6 5 7 8 7 7 7 7 7 8 8 7 5 5 3 5 7 7 8 8 9 9 9 10 10 10 10 9 9 5 5 6 6 5 5 4 5 5 5 6 6 6 6 6 6 6 6 6 6 5 3 4 3 4 3 4 4 5 6 5 3 2 3 3 3 3 3 3 3 4
6 6 6 7 6 7 6 6 6 6 6 6 6 6 7 7 7 7 6 7 7 6 6 7 7 8 8 9 9 6 5 6 8 7 7 7 7 8 8 8 9 9 9 7 7 7 5 5 5 5 5 5 5 5 6 6 6 6 6 7 7 6 6 3 2 3 5 5 5 5 4 4 3 2 2 2 2 3 3 2 2 2 3 4 4
8 6 6 7 7 6 5 5 6 6 5 5 5 6 5 6 6 8 9 8 7 7 8 7 5 6 6 7 8 7 8 8 8 8 8 8 8 8 8 6 8 9 9 6 6 7 7 6 4 5 5 5 5 5 6 6 6 7 7 7 6 3 2 2 3 5 4 5 5 5 3 2 2 3 2 2 2 2 2 2 2 3 3 4 4
7 7 10 9 5 6 5 5 5 5 5 5 5 5 5 4 5 7 7 8 7 7 6 3 6 6 4 5 5 5 5 4 5 7 7 8 8 8 8 5 6 6 7 7 6 6 6 7 6 3 3 3 4 4 5 6 6 6 6 5 5 2 2 3 4 4 3 3 5 5 2 2 2 2 3 3 3 3 3 3 3 3 4 4 4
9 6 5 6 5 5 5 5 5 5 5 5 4 4 5 5 4 3 3 4 5 6 4 3 1 4 7 6 5 6 5 4 4 5 7 8 8 9 6 6 5 6 7 7 7 6 2 1 2 3 2 3 3 4 4 4 4 5 5 4 4 4 3 3 3 3 3 2 2 2 2 2 2 2 2 2 3 3 3 3 3 3 3 3 4
6 6 5 4 4 4 4 4 3 4 5 5 5 4 4 3 3 4 3 4 4 4 4 4 4 4 4 2 5 4 6 7 9 10 10 8 6 3 2 2 2 1 0 1 2 1 1 1 1 0 1 1 1 1 1 2 2 2 3 4 3 3 4 3 3 2 2 2 2 2 2 2 2 2 2 3 3 3 3 2 2 3 4 4 5
6 5 5 5 6 6 5 5 5 7 6 4 4 4 5 4 4 4 4 4 5 5 5 4 4 4 4 2 3 1 2 6 7 6 6 6 4 2 1 1 1 2 2 1 1 1 1 1 1 1 1 1 2 2 2 2 2 2 2 2 2 2 3 1 1 1 0 1 1 1 2 1 1 2 2 3 3 3 3 2 2 3 4 5 5
7 9 10 8 6 5 5 6 5 5 5 4 4 4 3 5 5 4 4 4 4 3 3 3 3 3 2 2 2 1 3 4 5 4 2 1 1 1 2 2 2 1 1 2 2 2 2 2 2 2 2 2 2 2 2 3 2 2 2 2 2 2 2 4 1 1 1 2 1 1 1 1 1 2 2 2 3 3 2 2 3 3 4 3 3
7 6 7 9 5 5 3 4 5 5 3 5 5 4 5 4 5 5 4 5 4 3 3 3 3 2 2 1 1 2 4 3 2 2 2 2 2 1 2 3 3 2 2 2 2 2 2 1 1 1 1 1 1 1 2 2 2 2 2 2 3 3 2 1 1 1 2 1 1 1 1 1 1 1 2 3 3 2 2 3 3 3 3 3 3
6 6 7 6 7 6 5 4 4 4 4 4 4 4 4 3 4 3 4 4 4 3 3 2 3 2 2 3 5 4 2 2 2 2 2 2 2 2 2 2 2 2 1 2 2 1 1 1 0 1 1 1 1 1 1 1 2 2 2 2 2 2 1 0 0 0 0 0 1 1 1 1 1 2 3 3 3 3 2 3 3 3 3 3 3
7 6 6 5 5 5 5 3 3 4 4 3 4 4 3 3 3 3 3 4 3 3 4 3 2 1 2 7 8 9 4 2 2 2 2 2 2 1 1 1 1 1 1 1 1 1 1 1 1 1 1 1 1 1 1 2 2 2 2 2 2 2 2 1 1 1 1 1 1 2 2 1 2 2 2 3 2 3 3 3 2 2 2 2 3
6 5 5 4 5 4 4 5 4 5 4 4 3 4 4 4 3 3 3 3 4 4 4 4 3 2 2 6 7 7 2 2 2 2 2 2 1 1 2 1 1 1 0 0 0 0 0 1 1 1 1 1 1 1 2 2 2 2 2 2 2 2 2 2 1 2 2 2 2 2 2 2 2 2 2 2 3 3 3 2 2 2 2 3 4
6 5 4 4 4 5 4 4 4 4 4 5 6 3 3 3 3 3 4 4 3 3 3 4 4 4 3 2 3 2 2 1 1 1 2 2 2 2 1 1 1 1 1 1 0 0 1 1 2 1 0 1 1 1 2 2 1 2 2 2 2 3 3 3 3 2 2 2 2 2 2 2 2 2 3 3 3 3 3 3 2 2 2 3 3
6 6 6 6 4 5 5 4 4 5 6 5 4 4 2 3 3 3 3 3 3 2 2 3 3 3 2 2 2 2 2 2 2 1 2 2 1 1 1 0 1 1 1 1 1 1 1 2 2 2 2 2 2 2 2 2 2 2 3 3 3 4 4 4 3 2 2 2 2 2 2 2 3 4 4 3 3 3 3 3 3 3 3 4 5
5 5 5 6 5 3 4 5 3 4 4 4 4 3 3 2 2 2 2 3 3 3 3 2 2 2 2 2 2 2 2 1 1 1 1 1 1 1 1 1 1 1 1 1 1 1 2 1 2 2 2 2 2 2 2 2 2 2 2 3 4 4 2 1 0 1 2 2 3 3 3 3 4 4 4 3 2 3 3 2 2 2 3 5 5
5 5 5 4 5 4 4 3 4 4 4 4 3 4 3 3 2 2 2 2 3 2 3 2 2 2 2 2 2 2 1 2 1 1 2 1 1 1 1 1 1 1 1 1 1 1 2 2 2 2 2 2 2 2 2 2 2 2 2 3 3 3 3 2 2 2 2 3 3 3 4 3 4 3 3 3 3 3 2 3 3 3 4 5 5
5 4 4 4 5 5 5 5 6 5 3 3 3 3 2 3 3 3 2 3 3 2 2 2 2 1 1 1 1 1 1 1 1 1 1 2 2 2 1 1 1 1 1 1 1 2 2 2 2 2 2 2 2 3 3 2 2 2 2 3 3 3 2 2 2 2 3 3 3 4 3 4 4 3 3 4 3 3 3 3 3 4 5 5 5
5 5 5 5 4 4 4 5 3 4 4 4 4 4 2 2 2 2 2 2 2 2 2 2 2 1 1 1 1 1 1 1 2 2 2 2 1 1 1 1 1 1 1 2 2 2 2 2 2 2 3 3 3 3 3 3 3 3 3 2 3 6 6 6 4 3 5 3 3 3 3 4 4 3 3 2 3 3 3 4 4 4 4 4 4
4 4 4 4 4 3 3 3 3 3 3 3 3 3 3 2 2 2 2 2 1 1 1 1 1 1 2 2 2 2 2 2 2 2 2 1 1 1 1 1 2 2 2 2 2 2 2 2 2 3 3 3 3 3 3 3 3 4 3 3 7 9 9 9 10 8 5 4 4 4 4 4 3 3 3 3 2 3 4 5 5 4 4 4 4
3 4 4 4 4 4 4 3 3 3 2 2 3 3 3 3 3 2 2 2 2 2 2 1 1 1 1 1 1 2 2 2 2 1 1 2 2 1 2 2 2 2 2 2 2 2 3 3 2 3 3 3 4 4 3 4 3 4 6 9 11 10 10 10 7 10 11 7 4 4 4 5 4 4 3 4 4 5 6 5 5 4 4 4 5
Wind_Direction
192 191 187 190 183 186 182 177 172 174 166 175 179 182 176 175 169 154 145 162 156 156 153 153 153 148 144 146 147 146 140 137 134 130 123 128 127 129 139 142 142 142 147 153 159 163 160 141 145 146 163 178 170 162 158 151 161 187 194 208 206 195 206 235 254 266 251 157 235 260 189 262 272 225 271 292 304 299 278 273 272 277 281 280 286
193 193 192 191 190 190 185 173 175 176 175 171 180 177 172 174 154 144 159 156 162 158 154 152 152 149 147 148 146 143 140 138 139 140 138 137 136 135 148 150 148 146 154 159 163 164 156 154 157 161 181 185 169 173 162 163 184 195 203 210 209 195 206 232 258 266 271 245 246 241 241 221 266 259 275 302 304 299 281 275 270 267 271 278 281
188 193 192 189 190 186 176 179 173 178 179 178 180 168 166 164 154 160 162 157 165 163 159 155 154 151 147 147 145 143 146 141 143 142 143 147 150 155 156 157 156 155 162 166 164 154 159 165 167 165 175 187 186 188 172 184 194 210 208 206 210 200 198 226 249 262 269 272 272 266 262 245 259 281 291 288 288 281 275 269 268 273 269 271 273
182 190 191 190 187 182 181 174 174 175 179 179 176 165 160 160 159 163 160 160 164 162 156 155 151 153 150 151 150 146 144 142 144 146 149 157 158 159 159 158 158 159 159 152 152 161 173 168 175 175 181 192 193 194 193 197 204 211 206 211 209 209 204 209 233 252 269 275 259 245 261 275 274 278 276 281 274 268 264 271 271 268 266 263 268
182 190 189 189 187 187 186 178 181 181 177 171 178 165 162 160 164 167 159 165 167 156 154 157 155 156 158 156 151 150 151 149 148 149 156 162 162 156 158 160 160 157 148 155 156 165 175 191 177 176 186 196 197 203 203 202 208 211 211 207 211 209 197 214 223 235 251 259 269 260 254 265 272 276 272 274 275 270 266 268 274 271 267 268 268
186 186 187 189 190 190 185 180 184 182 174 170 166 164 165 163 164 165 165 166 163 163 161 162 165 165 161 158 155 153 150 152 152 156 156 156 151 146 149 147 143 151 159 159 165 174 181 194 187 183 190 201 209 204 204 206 207 213 214 213 210 206 212 218 221 230 244 258 263 272 261 260 274 269 254 248 269 283 286 283 273 261 261 266 265
186 190 188 189 188 191 186 185 180 178 179 180 168 165 168 167 165 164 167 167 164 165 168 166 169 165 162 157 158 156 151 147 147 148 151 158 162 163 159 159 166 165 159 159 170 181 194 200 199 196 201 210 216 210 202 203 207 215 216 220 214 210 220 220 222 233 243 255 260 258 267 263 258 270 266 259 266 271 281 291 284 268 257 267 281
187 193 191 193 192 188 184 184 182 176 171 169 172 171 163 162 166 162 166 169 170 168 167 170 168 165 161 160 160 156 148 143 147 155 160 163 161 162 161 166 171 158 154 170 175 190 197 203 206 208 211 215 219 221 204 206 207 215 218 214 216 217 225 226 227 235 245 249 254 260 263 269 265 261 264 251 257 255 245 267 288 293 289 283 279
189 193 194 198 195 182 176 177 173 161 160 167 169 169 167 165 158 160 168 172 169 170 169 165 158 160 160 163 155 149 152 162 160 161 161 164 164 164 168 164 155 159 166 171 186 191 197 206 210 214 214 219 223 231 220 211 205 217 221 208 217 218 225 230 231 238 248 250 256 256 260 260 256 259 255 249 253 269 282 281 277 280 286 290 284
189 192 196 197 188 179 174 162 168 169 174 176 171 168 173 170 163 161 172 174 167 160 156 160 163 163 162 161 156 157 166 148 172 162 160 157 165 158 153 164 170 165 164 173 188 199 205 206 214 213 210 215 223 226 226 224 228 235 233 215 205 213 214 219 231 237 243 249 249 253 258 257 256 250 255 256 263 265 267 268 275 286 293 286 288
190 192 196 192 180 174 174 171 165 169 174 170 170 175 173 171 165 151 169 171 161 160 162 164 172 171 165 161 163 171 169 170 174 176 176 165 152 158 166 173 170 172 175 182 188 197 205 212 220 207 213 225 226 226 229 228 230 231 235 237 227 206 200 214 231 228 235 247 252 247 249 259 256 254 253 261 255 254 259 266 275 286 286 298 296
189 192 191 182 177 172 175 166 167 168 160 173 180 184 181 181 183 181 167 150 165 160 174 174 162 159 162 164 167 169 161 171 175 178 177 178 177 173 169 162 169 180 186 190 189 189 202 206 212 204 212 213 213 218 224 229 230 231 231 231 230 229 222 213 219 230 227 237 247 244 244 248 262 253 255 253 254 256 255 263 265 273 280 277 283
191 191 187 182 178 174 173 171 170 168 171 176 180 180 179 182 183 180 185 169 154 165 175 172 181 157 160 171 175 168 158 176 179 180 182 182 183 175 167 166 169 186 190 191 194 200 200 205 208 210 210 206 209 218 220 223 227 230 231 232 233 230 231 232 231 231 234 235 242 251 240 250 260 255 247 253 259 261 264 266 268 269 271 274 278
191 190 185 178 176 173 169 174 177 171 172 177 177 181 181 184 180 179 168 154 166 165 173 181 180 182 184 184 175 171 179 184 183 182 183 185 184 177 162 168 184 188 194 193 197 206 207 204 207 215 205 197 210 212 219 222 222 222 226 229 233 232 231 233 233 234 233 236 237 246 249 239 250 259 258 252 250 251 256 267 274 272 267 266 280
188 185 184 181 174 172 170 169 174 171 177 175 176 179 180 177 175 176 165 173 176 180 180 181 184 181 183 184 185 188 193 184 185 184 185 185 182 176 165 174 185 200 205 204 205 206 211 211 217 221 203 194 206 203 205 211 212 215 221 229 233 236 232 227 224 227 229 233 238 244 251 246 249 252 254 252 254 251 253 265 273 258 270 284 279
186 186 181 175 173 173 171 169 169 170 172 170 169 172 173 174 173 174 172 172 180 179 186 184 179 185 189 187 184 185 180 187 188 188 187 182 178 173 164 179 193 203 208 216 215 216 219 221 221 226 220 212 210 206 206 205 207 213 228 235 240 244 245 237 234 231 231 231 234 240 244 245 243 241 242 252 259 268 270 266 204 209 243 264 273
188 188 187 179 178 171 169 168 167 172 170 167 169 168 170 176 182 169 163 169 174 183 188 192 191 186 182 185 190 183 180 189 191 187 181 179 177 174 168 185 200 207 222 219 217 215 220 223 223 225 229 234 222 213 218 212 221 220 228 241 242 246 249 239 240 243 245 247 251 256 261 262 261 260 261 260 260 254 251 233 223 217 242 264 280
189 182 185 179 166 163 168 172 175 175 172 174 176 179 181 182 179 177 180 180 184 187 186 183 183 183 182 187 193 191 189 189 187 184 183 182 178 178 178 187 202 211 227 227 221 225 224 211 215 227 230 238 223 221 226 220 228 226 229 240 249 248 250 233 239 245 251 257 261 261 262 265 265 266 265 265 263 259 225 220 222 203 228 257 277
184 179 179 169 167 162 170 175 172 172 178 179 179 180 180 181 181 179 186 166 180 148 160 148 158 160 181 185 174 181 176 189 193 190 187 186 184 182 183 193 206 218 223 229 221 226 228 210 213 222 231 238 230 231 230 223 233 227 224 230 247 250 254 242 237 241 238 236 249 254 260 261 261 259 260 259 258 257 248 220 195 202 233 251 274
175 171 171 163 153 157 169 171 175 178 180 179 180 179 166 148 152 157 171 166 148 137 161 166 169 174 170 173 182 185 180 188 200 199 196 195 191 184 190 197 212 215 220 227 226 219 217 221 213 221 231 237 239 236 231 227 230 239 233 237 243 256 286 253 236 245 247 240 251 248 254 257 255 255 252 249 251 241 212 212 197 203 218 233 253
161 165 156 153 155 163 163 175 176 178 178 175 170 169 165 160 156 167 170 163 156 156 168 173 174 173 168 178 181 195 194 191 197 205 207 205 203 196 205 212 218 221 224 223 228 233 232 221 218 208 222 231 236 236 235 233 235 243 241 243 244 264 289 280 261 242 243 238 239 243 244 246 245 242 233 212 203 210 223 225 198 208 193 204 250
158 156 151 150 157 166 170 172 172 169 164 151 146 150 156 159 163 166 165 162 165 169 169 170 164 162 165 183 191 194 195 194 178 205 214 216 214 212 216 224 223 224 230 234 232 236 235 236 231 188 207 227 235 238 242 243 243 245 247 250 256 260 262 261 263 257 257 258 257 258 257 252 250 251 237 200 209 209 203 199 215 204 207 200 211
146 143 148 160 163 165 166 165 164 161 156 156 158 152 148 156 161 162 162 162 167 169 166 153 151 161 168 180 185 181 174 190 202 206 212 217 221 222 224 229 221 216 233 241 236 243 244 236 235 199 208 226 235 240 244 250 252 251 253 257 259 262 264 263 259 249 247 248 247 250 253 244 242 247 211 214 187 157 185 195 204 201 208 217 233
147 151 157 157 160 160 161 162 158 153 158 153 155 153 155 157 154 161 157 158 157 160 165 163 172 178 181 188 187 189 188 198 206 208 209 216 221 224 228 232 232 230 229 240 244 245 245 246 239 238 233 233 239 242 246 254 255 259 263 265 269 271 271 271 270 267 260 247 239 245 249 249 247 245 238 199 189 159 178 191 201 204 205 228 240
151 156 158 159 156 157 158 154 151 154 154 154 152 150 152 149 150 152 148 157 162 167 173 171 182 187 189 194 190 184 185 191 194 204 210 216 224 227 229 231 233 233 238 243 243 245 249 249 254 247 237 239 245 254 259 260 261 262 265 267 269 266 264 263 264 266 264 261 253 262 263 251 251 206 147 125 113 123 151 195 180 209 250 261 259
154 156 156 155 157 151 152 149 148 143 151 149 142 144 146 153 152 155 166 173 175 175 173 172 184 187 192 195 191 183 171 179 190 192 203 215 224 229 231 233 236 237 242 252 257 266 267 268 269 269 264 261 262 257 250 252 257 260 262 263 260 259 259 260 261 260 258 262 262 268 275 281 102 98 102 112 144 193 175 180 184 225 233 247 263
150 150 151 143 143 152 143 139 134 132 135 139 145 152 154 159 158 162 174 173 174 180 175 172 180 187 196 193 184 171 170 182 190 190 195 206 216 220 229 238 242 246 251 253 260 264 269 274 280 297 295 295 294 292 287 270 262 260 254 249 249 249 252 253 255 259 262 268 267 271 295 75 81 105 178 173 215 199 160 180 212 242 223 253 258
150 144 135 132 137 140 135 145 142 144 149 148 152 156 161 167 167 172 178 176 171 177 174 175 182 187 191 183 175 176 189 195 198 195 190 196 205 205 210 218 220 223 235 244 246 266 288 303 296 275 265 268 266 259 258 263 265 266 260 254 244 244 244 252 258 258 256 260 272 292 96 141 166 176 147 183 196 164 163 189 218 245 237 248 263
136 128 136 132 134 139 142 146 152 147 147 145 139 146 162 172 171 167 122 155 169 170 174 179 186 188 176 174 172 188 194 205 212 184 181 184 188 188 199 208 213 222 230 241 272 290 260 256 251 249 248 252 269 270 274 269 265 262 259 257 259 260 258 251 243 244 251 236 251 253 247 148 209 148 180 207 212 182 185 199 233 226 257 238 259
125 135 137 140 138 141 142 149 136 136 140 145 124 80 45 58 54 149 164 106 66 51 107 175 180 175 179 190 179 186 201 183 144 178 196 198 205 205 205 204 202 210 226 237 237 248 255 253 257 257 261 268 279 293 292 294 292 286 278 265 259 260 259 254 250 253 253 224 240 224 226 183 206 199 196 216 219 184 191 206 232 219 232 255 269
132 135 144 150 154 144 138 141 145 140 138 133 135 125 119 93 76 78 94 125 141 143 157 126 139 170 172 168 155 112 106 130 158 174 183 194 199 207 211 214 215 215 218 208 218 227 235 247 252 252 267 279 282 288 292 291 288 288 282 272 259 253 252 247 248 244 217 204 222 216 208 215 226 223 221 208 208 190 175 205 219 230 245 262 272
146 152 145 137 143 146 135 133 130 132 133 134 134 136 130 124 99 94 113 131 152 164 160 159 161 168 181 160 146 165 177 180 179 177 181 187 194 198 203 209 212 214 218 218 231 241 244 248 248 240 236 241 252 265 269 267 266 269 273 267 259 252 241 248 248 217 231 222 215 213 213 220 236 243 233 218 181 202 188 206 206 227 251 256 259
127 120 127 135 140 138 137 138 141 141 139 138 142 143 144 142 136 133 114 114 122 136 153 158 162 164 168 165 166 157 162 174 178 179 188 195 201 206 212 219 221 224 221 226 234 244 233 218 217 221 223 231 238 238 242 239 244 250 260 262 257 254 247 236 196 203 237 237 236 241 224 215 217 219 210 191 189 209 207 218 231 233 251 263 264
145 146 150 144 136 142 139 142 139 143 142 143 147 150 151 149 142 138 138 137 120 98 81 85 121 147 158 171 175 176 175 178 182 188 192 195 199 205 207 215 223 225 223 230 237 244 248 251 235 220 223 230 236 237 240 245 249 255 255 255 259 257 120 136 201 231 230 227 225 238 223 206 194 203 208 179 191 201 217 229 228 241 248 249 263
115 116 134 142 136 137 137 138 134 132 138 142 146 150 146 137 137 148 151 152 154 153 158 95 59 68 104 125 137 134 140 154 184 200 204 206 207 207 210 215 216 217 222 227 233 239 248 247 246 237 215 220 234 238 246 253 256 256 256 258 260 234 171 195 220 223 207 217 233 236 210 189 186 198 195 195 194 213 223 222 233 235 247 258 262
126 131 131 137 126 129 134 138 138 143 146 145 140 126 124 133 144 143 128 126 132 133 129 107 83 43 85 74 94 137 141 146 187 209 215 217 220 211 212 221 217 217 219 227 237 249 253 202 215 233 224 238 249 252 260 255 257 257 260 259 251 246 221 211 213 202 211 208 214 203 191 193 183 171 167 197 216 231 245 235 239 240 237 249 258
131 128 131 134 127 120 110 104 106 107 102 106 113 118 120 117 109 119 128 133 130 129 127 131 132 123 91 44 21 70 130 131 111 99 91 97 100 111 123 172 187 192 166 73 47 55 99 70 85 139 185 185 218 206 235 249 245 237 245 247 243 237 234 218 210 187 188 203 200 187 197 200 163 173 183 222 231 217 223 221 233 238 241 247 252
106 115 120 116 113 112 112 113 111 105 109 112 109 115 120 122 122 125 128 129 136 136 141 149 152 152 151 132 49 49 92 121 105 88 69 58 51 72 108 133 171 212 181 135 135 110 140 158 166 175 197 188 208 229 236 239 240 241 240 232 235 241 238 228 203 148 175 208 198 181 197 182 166 173 189 220 237 239 226 217 227 239 242 235 234
92 101 109 111 108 117 118 117 122 122 118 116 119 124 124 128 128 127 128 130 134 129 127 132 142 142 119 116 123 124 143 166 188 195 140 114 105 125 145 157 168 172 166 169 167 182 176 195 202 198 206 227 234 245 249 258 260 257 260 261 254 250 237 242 199 185 198 214 209 183 191 208 184 195 204 220 233 230 233 221 226 234 244 245 245
115 121 120 116 100 103 103 109 117 118 128 126 130 126 126 136 139 137 136 133 135 132 136 132 129 119 116 116 137 162 174 171 162 156 162 175 167 166 171 198 204 192 192 189 194 196 206 211 201 221 233 237 251 260 273 274 272 272 270 260 260 259 252 250 247 202 223 216 227 208 212 218 206 184 208 224 233 232 223 226 230 230 240 251 265
105 106 115 107 115 112 112 117 119 126 132 125 131 135 134 128 122 124 125 123 121 121 116 116 112 110 143 171 177 168 156 154 148 156 166 168 166 171 183 185 187 184 194 186 201 202 218 223 222 227 238 240 240 253 258 262 266 266 260 259 259 263 267 138 241 239 243 246 246 243 235 217 207 202 218 224 217 233 235 234 234 234 232 239 255
117 119 118 122 128 122 117 107 111 117 111 113 123 123 127 124 126 121 125 124 122 122 124 119 118 118 212 205 191 173 156 144 147 148 145 152 161 171 164 165 175 182 194 196 189 203 210 207 223 222 230 236 225 242 245 242 242 244 244 243 241 241 244 235 204 206 218 244 237 234 240 222 220 220 234 237 227 219 225 224 226 230 242 247 257
107 106 111 118 123 123 118 122 124 124 123 114 103 102 111 115 116 121 119 120 126 133 134 135 137 150 133 129 129 142 139 142 144 156 154 163 169 170 180 187 178 169 173 148 188 184 220 230 239 245 232 236 232 229 230 241 233 236 236 230 233 232 233 237 222 206 207 222 236 223 215 232 231 227 219 216 221 221 222 221 225 237 244 253 259
114 107 98 90 92 91 97 113 111 100 95 100 105 108 114 109 113 115 124 127 135 138 136 141 146 145 136 117 115 119 143 141 160 165 169 174 181 188 188 183 173 172 189 201 202 195 221 237 246 250 237 235 230 226 244 247 239 235 238 233 233 229 233 230 230 222 213 220 222 214 211 212 222 232 226 217 212 215 221 211 224 233 243 248 255
109 115 117 114 108 107 105 90 100 104 116 118 111 112 117 113 118 121 127 132 133 132 136 140 145 149 145 149 155 155 159 171 180 183 196 196 193 201 202 189 191 206 221 222 209 182 227 236 246 247 246 243 213 215 226 232 226 235 235 230 237 234 229 224 227 223 206 208 228 221 219 213 211 220 224 217 206 209 226 216 216 218 239 247 252
109 109 109 110 112 106 109 113 111 118 125 120 122 118 118 112 116 125 132 132 140 144 143 148 145 145 146 151 155 167 175 178 199 199 206 212 215 215 210 209 207 216 225 228 205 195 226 234 238 245 241 245 235 228 231 229 228 236 243 245 242 248 255 249 204 186 192 198 216 219 218 215 217 220 218 219 215 213 221 221 213 220 237 251 248
101 98 104 108 111 108 105 112 117 115 110 107 107 116 125 130 127 119 124 142 145 142 145 150 151 161 161 167 179 187 178 191 209 208 215 221 231 231 223 212 220 234 234 227 227 230 225 232 243 241 251 259 264 252 254 249 235 230 228 235 238 243 250 242 212 207 215 204 209 223 224 222 221 214 208 209 224 217 212 220 216 216 229 242 245
100 100 103 109 114 118 125 122 118 119 109 119 119 122 119 127 134 145 147 151 158 156 152 150 160 158 162 179 183 189 203 210 220 224 228 223 224 222 206 220 233 244 246 248 235 232 235 234 228 235 246 247 249 256 250 245 244 240 236 236 231 233 237 231 233 228 229 215 205 218 222 227 234 223 211 196 211 215 212 225 230 239 231 230 237
101 109 119 121 120 122 128 126 126 130 134 131 129 135 133 138 148 151 156 156 158 161 166 166 172 162 191 194 186 199 205 221 227 232 228 233 223 230 215 222 231 243 248 253 245 227 228 235 232 236 235 241 241 242 250 249 249 247 239 243 244 244 237 226 228 227 218 221 216 217 225 228 229 229 213 208 209 212 225 240 240 238 239 233 228
95 98 103 106 103 100 95 99 105 110 117 126 130 135 142 147 152 160 158 153 151 164 174 174 181 188 196 202 204 211 210 220 226 227 233 238 238 224 229 218 214 226 233 240 244 235 234 233 224 228 230 232 235 237 242 244 245 245 245 242 250 247 238 229 224 219 206 217 210 211 212 221 220 223 223 211 207 208 223 233 230 230 232 232 235
90 96 94 98 103 108 116 119 118 116 119 131 139 143 156 164 166 160 158 168 177 181 175 189 199 204 219 223 220 223 225 232 240 241 246 244 237 227 223 226 229 226 229 230 238 238 232 230 233 226 221 225 230 235 232 237 236 238 243 249 249 244 239 232 228 219 212 210 203 203 208 210 211 213 217 221 228 223 224 224 225 222 229 236 239